User: anonymous   Login
Location: Huntsville
(41.2590°N, 111.7678°W)
Time: 03:23:37
(UTC+00:00)
Language:

Explorer 7 - Orbit

View from above orbital plane
View from above orbital plane
View from above satellite
View from above satellite

Ground track
Ground track

The orbit data is extracted from the following two-line orbital elements,

1 00022U 59009A   22278.80276332  .00004767  00000-0  35761-3 0  9998
2 00022  50.2816 114.4640 0133574 233.3366 125.5243 14.97526725596164
Epoch (UTC): 05 October 2022 19:15:58
Eccentricity: 0.0133574
inclination: 50.2816°
perigee height: 481 km
apogee height: 667 km
right ascension of ascending node: 114.4640°
argument of perigee: 233.3366°
revolutions per day: 14.97526725
mean anomaly at epoch: 125.5243°
orbit number at epoch: 59616

The dashed part of the orbit path shows where the satellite is in the earth's shadow,  

DLR